User: anonymous   Login
Location: Unspecified
(0.0000°N, 0.0000°E)
Time: 00:31:02
(UTC+02:00)
Language:

IUS-9 SRM-1 - Orbit

View from above orbital plane
View from above orbital plane
View from above satellite
View from above satellite

Ground track
Ground track

The orbit data is extracted from the following two-line orbital elements,

1 19884U 89021C   17084.08108265 +.00004140 +00000-0 +36878-3 0  9994
2 19884 026.4795 068.5710 5967106 197.1992 127.7691 04.12734015330505
Epoch (UTC): 25 March 2017 01:56:45
Eccentricity: 0.5967106
inclination: 26.4795°
perigee height: 242 km
apogee height: 19834 km
right ascension of ascending node: 68.5710°
argument of perigee: 197.1992°
revolutions per day: 4.12734015
mean anomaly at epoch: 127.7691°
orbit number at epoch: 33050

The dashed part of the orbit path shows where the satellite is in the earth's shadow,  

DLR